Location: San Felipe Pueblo
(35.4339°N, 106.4467°W)
Time: 04:58:15
(UTC+00:00)

Daily predictions for brighter satellites

Satellite Brightness Start Highest point End
(mag) Time Altitude Azimuth Time Altitude Azimuth Time Altitude Azimuth
NOSS 3-1 (A) 4.4 00:28:22 10° NNW 00:36:21 87° WSW 00:45:19 10° SSE
Cosmos 2228 3.0 00:36:03 10° S 00:40:12 59° E 00:44:24 10° NNE
Cosmos 1741 Rocket 4.0 00:35:04 10° NNW 00:40:17 70° ENE 00:45:28 10° SSE
Cosmos 1606 Rocket 3.6 00:37:12 10° S 00:41:26 58° E 00:45:45 10° NNE
Cosmos 1656 4.5 00:39:15 10° SSE 00:43:58 30° ESE 00:48:46 10° NE
FALCON 9 DEB 3.5 00:40:53 10° WSW 00:44:03 59° NW 00:47:15 10° NE
CZ-4B R/B 1.5 00:43:21 10° N 00:46:33 74° WNW 00:49:39 10° SSW
Cosmos 2227 Rocket 3.8 00:44:32 10° NNE 00:47:32 14° NE 00:50:31 10° E
FALCON 9 DEB 3.9 00:47:09 10° WSW 00:50:14 45° NW 00:53:19 10° NE
Cosmos 44 3.1 00:46:00 10° SSW 00:50:23 86° WNW 00:55:04 10° NNE
SKYMED 2 3.8 00:48:32 10° NNE 00:52:45 49° E 00:56:57 10° S
OAO 3 Rocket 3.2 00:51:42 10° W 00:56:31 83° S 01:01:04 11° E
Cosmos 1850 Rocket 4.3 00:51:17 10° NNW 00:56:35 78° WSW 01:01:54 10° S
FALCON 9 DEB 4.2 00:56:56 10° WSW 01:00:00 39° NW 01:03:05 10° NNE
Cosmos 1697 Rocket 3.8 00:57:11 10° SSE 01:01:19 21° E 01:05:27 10° NE
Gbstr 26 Del rocket 4.5 00:55:57 10° NW 01:02:36 79° SW 01:10:24 10° SE
ERS-2 3.8 01:00:01 10° N 01:03:23 37° WNW 01:06:44 10° SW
Helios 1A Rocket 3.7 00:59:50 10° SE 01:03:26 30° ENE 01:07:02 10° N
Cosmos 1340 3.8 01:01:16 10° NNE 01:04:15 22° ENE 01:07:12 10° SE
Meteor 2-14 Rocket 4.4 00:58:26 10° N 01:04:36 85° E 01:10:42 10° S
Cosmos 1939 Rocket 3.1 01:00:50 10° SSE 01:04:39 46° ENE 01:08:27 10° N
H-2A R/B 3.4 01:04:50 10° ESE 01:08:38 20° ENE 01:12:28 10° NNE
ASTRO E2 4.1 01:05:24 10° SW 01:08:44 26° SSE 01:11:22 14° ESE
NOAA 11 4.2 01:03:34 10° SSE 01:09:01 87° ENE 01:14:29 10° NNW
SAR-Lupe-4 4.1 01:06:41 10° N 01:10:14 62° WNW 01:13:46 10° SSW
Cosmos 2058 Rocket 3.1 01:06:34 10° S 01:10:57 60° E 01:15:22 10° NNE
Aureole 3 Rocket 2.7 01:11:35 10° S 01:14:57 61° E 01:19:24 10° NNE
Cosmos 1953 Rocket 3.5 01:11:41 10° N 01:16:06 72° E 01:20:31 10° SSE
Cosmos 292 Rocket 4.4 01:12:09 10° SSW 01:16:50 58° WNW 01:21:36 10° N
Cosmos 1455 3.5 01:17:37 10° SE 01:19:52 20° ESE 01:19:52 20° ESE
IRS-1C Rocket 4.0 01:15:29 10° SSE 01:20:42 74° ENE 01:25:59 10° N
PSLV R/B 3.9 01:17:06 10° NNE 01:21:17 89° NW 01:25:24 10° SSW
Cosmos 1980 Rocket 3.7 01:19:51 10° SE 01:22:19 16° ESE 01:22:19 16° ESE
CZ-4 R/B 1.6 01:21:28 10° SE 01:25:10 41° ENE 01:28:50 10° N
GPS 2-04 Rocket1 4.3 01:24:20 10° SSW 01:27:33 22° SSE 01:28:47 19° SE
Cosmos 2297 Rocket 2.7 01:23:01 10° N 01:28:15 37° ENE 01:32:04 17° ESE
Cosmos 2058 4.4 01:24:58 10° NNE 01:26:52 19° NE 01:26:52 19° NE
Geosat 3.9 01:23:34 10° NNE 01:28:35 70° ESE 01:33:34 10° SSW
Milstar 3 3.3 01:23:29 10° WSW 01:30:11 47° S 01:34:44 20° ESE
Cosmos 1400 Rocket 3.1 01:27:10 10° SSW 01:31:18 74° W 01:35:24 10° N
Cosmos 1689 Rocket 3.5 01:28:48 10° N 01:31:31 37° WNW 01:34:12 10° SW
In-Cosmos 22 Rocket 4.2 01:26:36 10° N 01:31:52 54° E 01:37:12 10° SSE
Cosmos 1244 Rocket 4.4 01:27:28 10° N 01:33:42 82° E 01:39:59 10° S
COSMO-SKYMED 1 3.8 01:36:39 10° N 01:40:45 42° WNW 01:44:50 10° SW
OAO 2 Rocket 3.3 01:40:06 10° WSW 01:45:01 65° SSE 01:46:47 38° E
Cosmos 2278 4.5 01:44:06 10° SSE 01:48:20 30° ESE 01:48:20 30° ESE
SeaSat 1 3.7 01:51:12 24° NE 01:51:12 24° NE 01:54:13 10° N
YAOGAN 1 2.4 01:46:52 10° SSE 01:51:10 76° ENE 01:55:30 10° N
Cosmos 2219 3.1 01:50:11 10° NNW 01:55:56 70° ENE 01:59:59 20° SSE
Cosmos 1812 Rocket 4.0 01:54:14 10° S 01:57:25 41° SE 01:57:25 41° SE
Cosmos 2315 Rocket 4.4 01:54:31 10° SSE 02:04:30 17° NNE 02:05:55 10° NNE
Cosmos 1892 2.5 01:56:22 10° N 02:00:16 86° E 02:01:24 45° S
Cosmos 1315 Rocket 2.6 01:56:23 10° S 02:00:17 76° E 02:00:17 76° E
S3M 3.9 01:58:13 10° S 02:04:19 89° W 02:10:29 10° N
CZ-2C R/B 3.3 01:58:34 10° SSE 02:04:23 87° WSW 02:10:10 10° NNW
Cosmos 1346 Rocket 4.3 02:02:09 10° N 02:03:57 25° N 02:03:57 25° N
Delta 2 Rocket 4.1 02:01:37 10° W 02:07:01 72° SSW 02:08:24 50° SE
Cosmos 968 Rocket 3.4 02:02:46 10° N 02:07:57 63° ENE 02:08:22 61° E
Cosmos 2369 3.6 02:06:04 10° SSW 02:11:46 81° ESE 02:14:26 33° NNE
Okean-O 3.7 02:08:36 10° S 02:12:50 45° W 02:17:06 10° NNW
CRYOSAT 2 4.3 02:08:31 10° N 02:13:23 82° W 02:18:14 10° S
Meteor 2-10 Rocket 3.9 02:08:40 10° SSW 02:14:03 65° W 02:19:14 10° N
Atlas Centaur 2 3.3 02:07:08 10° WSW 02:15:26 56° S 02:17:57 42° ESE
ARGOS 3.1 02:18:06 62° NE 02:18:06 62° NE 02:23:04 10° N
Cosmos 1486 Rocket 3.9 02:15:17 10° NNW 02:20:38 88° ENE 02:21:27 65° SSE
BREEZE-M TANK 4.0 02:19:13 10° NW 02:23:05 28° N 02:23:05 28° N
SJ-11-01 4.4 02:25:02 61° SSW 02:25:43 72° W 02:30:23 10° NNW
NOSS 3-3 (A) 4.2 02:20:27 10° SW 02:26:02 61° NW 02:29:21 27° NNE
NOSS 3-3 (C) 4.2 02:20:31 10° SW 02:26:10 61° NW 02:29:28 28° NNE
MOS 1 Rocket 4.3 02:23:47 10° N 02:28:18 48° WNW 02:33:05 10° SSW
Cosmos 2227 Rocket 2.2 02:26:32 10° NNW 02:32:11 76° WSW 02:33:07 61° S
CSL-04 Rocket 3.9 02:27:43 12° S 02:32:53 68° WSW 02:38:23 10° NNW
GEOS 3 Rocket 3.8 02:38:25 66° NNW 02:38:25 66° NNW 02:43:00 10° NNW
OAO 3 Rocket 4.3 02:35:21 10° W 02:38:53 38° SW 02:38:53 38° SW
ATLAS 2AS CENTAUR R/B 4.4 02:38:17 10° N 02:41:40 19° NNE 02:41:40 19° NNE
Cosmos 1697 Rocket 3.7 02:39:34 10° SW 02:44:53 44° WNW 02:47:50 24° N
H-2A R/B 3.0 02:43:42 17° SSW 02:47:36 47° W 02:52:52 10° NNW
Cosmos 1980 Rocket 3.6 03:01:10 10° SW 03:04:11 31° SW 03:04:11 31° SW
Cosmos 2297 Rocket 4.1 03:07:27 10° NW 03:12:02 26° WSW 03:14:00 21° SW
Atlas Centaur 2 4.5 03:56:44 10° W 04:00:32 28° WSW 04:00:32 28° WSW
CENTAUR R/B 3.3 10:44:30 41° NNE 10:44:30 41° NNE 10:48:54 10° NNE
CZ-2C R/B 3.9 10:42:02 10° NNE 10:44:45 31° NE 10:44:45 31° NE
Cosmos 1833 Rocket 3.5 10:50:45 37° SSE 10:52:21 48° ESE 10:57:45 10° NNE
Lacrosse 5 rocket 3.8 10:58:36 16° NE 10:58:36 16° NE 10:59:24 10° NE
CZ-3 R/B 3.9 10:42:22 36° SW 10:55:50 61° S 11:05:27 10° E
H-2A R/B 4.0 10:56:02 10° SSE 10:57:55 24° SE 10:57:55 24° SE
CZ-4B R/B 4.2 11:08:45 10° ESE 11:11:13 19° ENE 11:13:41 10° NNE
Cosmos 2082 Rocket 3.6 11:06:29 10° S 11:11:34 37° ESE 11:16:41 10° NE
Cosmos 2142 Rocket 4.3 11:05:37 10° N 11:11:52 76° W 11:18:10 10° S
Meteor 1-16 Rocket 4.1 11:11:07 10° N 11:16:26 78° E 11:21:46 10° SSE
Cosmos 1656 4.0 11:17:43 15° NNW 11:22:32 66° ENE 11:28:10 10° SSE
Meteor 2-5 Rocket 4.5 11:19:17 10° S 11:24:44 53° E 11:30:20 10° NNE
ATLAS 3B R/B 2.6 11:23:35 18° SSW 11:28:37 77° ESE 11:35:13 10° NNE
COSMOS 2406 3.2 11:30:19 55° W 11:30:53 58° WNW 11:36:29 10° NNE
Cosmos 292 Rocket 3.7 11:36:15 58° WNW 11:36:41 61° WSW 11:41:27 10° S
Cosmos 2279 Rocket 4.0 11:30:42 10° NNW 11:36:42 54° W 11:42:41 10° SSW
ERS-2 2.5 11:33:58 10° SSE 11:37:33 62° ENE 11:40:22 16° N
Cosmos 2344 4.5 11:37:03 25° NW 11:37:38 26° NW 11:44:02 10° NNE
Cosmos 1697 Rocket 3.5 11:35:58 10° N 11:41:28 50° ENE 11:46:56 10° SE
Cosmos 1908 3.1 11:43:54 58° NW 11:44:27 69° W 11:48:19 10° S
ADEOS Rocket 2.8 11:39:32 10° S 11:44:55 53° W 11:50:18 10° NNW
Cosmos 44 Rocket 3.4 11:43:10 19° NNW 11:46:56 82° ENE 11:52:08 10° SSE
SL-19 R/B 4.5 11:44:20 10° NNE 11:47:04 47° ESE 11:49:55 10° S
Cosmos 1461 3.0 11:46:38 42° SW 11:48:00 67° WNW 11:52:39 10° NNE
ISS -2.1 11:52:01 22° N 11:52:01 22° N 11:54:00 10° NNE
SL-14 R/B 3.2 11:47:18 10° S 11:51:15 86° E 11:55:15 10° N
USA 290 2.3 11:51:25 18° S 11:53:36 72° ESE 11:56:49 10° NNE
